LGX05T EDDM-LFMN

Flight info

Callsign LGX05T
Flight time N/A
Altitude 35000
Route TURBU6E/08R TURBU Y107 TOBSO DCT BAKOR DCT RENTA DCT ATPED DCT LUSIL DCT EVANO DCT ENOBA Z185 BORDI
Aircraft B738/M-SDE2E3FGHIRWXY/LB1

Departure

Time N/A
Airport Munich Airport (EDDM)

Arrival

Time 2026-05-01 08:07
Airport Nice-Côte d'Azur Airport (LFMN)
Time Latitude Longitude Altitude Speed Heading
2026-05-01 07:23 46.26356 10.74267 35320 ft 492 kts 247°
2026-05-01 07:24 46.21743 10.61036 35300 ft 490 kts 246°
2026-05-01 07:24 46.18668 10.52279 35326 ft 487 kts 246°
2026-05-01 07:25 46.15600 10.43569 35316 ft 486 kts 246°
2026-05-01 07:25 46.12539 10.34911 35329 ft 483 kts 246°
2026-05-01 07:26 46.09489 10.26298 35341 ft 482 kts 246°
2026-05-01 07:26 46.06440 10.17708 35332 ft 481 kts 246°
2026-05-01 07:27 46.03200 10.09290 35350 ft 483 kts 237°
2026-05-01 07:27 45.99236 10.01480 35370 ft 483 kts 235°
2026-05-01 07:28 45.95190 9.93738 35370 ft 485 kts 235°
2026-05-01 07:28 45.91159 9.85946 35377 ft 486 kts 236°
2026-05-01 07:29 45.87165 9.78170 35395 ft 486 kts 236°
2026-05-01 07:29 45.83155 9.70364 35397 ft 486 kts 236°
2026-05-01 07:30 45.79142 9.62578 35389 ft 485 kts 236°
2026-05-01 07:30 45.75132 9.54822 35387 ft 484 kts 235°
2026-05-01 07:31 45.71122 9.47089 35252 ft 483 kts 235°
2026-05-01 07:32 45.61111 9.27876 35395 ft 480 kts 235°
2026-05-01 07:33 45.55255 9.16697 35397 ft 478 kts 235°
2026-05-01 07:33 45.49284 9.05341 35397 ft 476 kts 235°
2026-05-01 07:34 45.43347 8.94095 35390 ft 474 kts 234°
2026-05-01 07:35 45.39384 8.86611 35376 ft 473 kts 234°
2026-05-01 07:35 45.35263 8.79329 35360 ft 474 kts 224°
2026-05-01 07:35 45.32676 8.76421 35382 ft 474 kts 213°
2026-05-01 07:36 45.29781 8.74196 35370 ft 474 kts 202°
2026-05-01 07:36 45.23526 8.71327 35377 ft 473 kts 196°
2026-05-01 07:37 45.14074 8.67311 35350 ft 472 kts 197°
2026-05-01 07:37 45.07800 8.64563 35353 ft 472 kts 197°
2026-05-01 07:38 45.01535 8.61792 35357 ft 472 kts 197°
2026-05-01 07:39 44.92125 8.57638 35358 ft 472 kts 197°
2026-05-01 07:39 44.82666 8.53481 34558 ft 479 kts 197°
2026-05-01 07:40 44.79485 8.52086 33879 ft 479 kts 197°
2026-05-01 07:40 44.76305 8.50694 33142 ft 479 kts 197°
2026-05-01 07:40 44.73119 8.49301 32540 ft 478 kts 197°
2026-05-01 07:40 44.69956 8.47920 32034 ft 474 kts 197°
2026-05-01 07:41 44.66911 8.46591 31537 ft 470 kts 197°
2026-05-01 07:41 44.63796 8.45234 31049 ft 467 kts 196°
2026-05-01 07:41 44.57630 8.42551 29983 ft 461 kts 196°
2026-05-01 07:42 44.54577 8.41224 29440 ft 457 kts 196°
2026-05-01 07:42 44.51548 8.39910 28904 ft 453 kts 196°
2026-05-01 07:42 44.48554 8.38612 28395 ft 449 kts 196°
2026-05-01 07:42 44.45584 8.37326 27887 ft 445 kts 196°
2026-05-01 07:43 44.42628 8.36047 27400 ft 441 kts 196°
2026-05-01 07:43 44.39710 8.34786 26905 ft 438 kts 196°
2026-05-01 07:43 44.33931 8.32280 25936 ft 432 kts 198°
2026-05-01 07:44 44.28866 8.27942 24942 ft 428 kts 225°
2026-05-01 07:44 44.25291 8.21398 23979 ft 422 kts 237°
2026-05-01 07:45 44.23658 8.18007 23439 ft 420 kts 237°
2026-05-01 07:45 44.22026 8.14639 22936 ft 417 kts 237°
2026-05-01 07:45 44.20391 8.11306 22448 ft 414 kts 237°
2026-05-01 07:45 44.18764 8.08024 21997 ft 410 kts 236°
2026-05-01 07:46 44.17142 8.04774 21526 ft 407 kts 236°
2026-05-01 07:46 44.15528 8.01545 21086 ft 404 kts 236°
2026-05-01 07:46 44.12338 7.95184 20154 ft 398 kts 236°
2026-05-01 07:47 44.10755 7.92027 19704 ft 396 kts 236°
2026-05-01 07:47 44.09184 7.88896 19290 ft 393 kts 236°
2026-05-01 07:47 44.07618 7.85776 18776 ft 393 kts 236°
2026-05-01 07:47 44.06056 7.82664 18297 ft 392 kts 236°
2026-05-01 07:48 44.03482 7.77550 17641 ft 384 kts 236°
2026-05-01 07:48 44.01954 7.74521 17248 ft 381 kts 236°
2026-05-01 07:48 44.00440 7.71516 16809 ft 378 kts 236°
2026-05-01 07:49 43.98942 7.68540 16438 ft 375 kts 236°
2026-05-01 07:49 43.95979 7.62666 15651 ft 367 kts 235°
2026-05-01 07:49 43.94524 7.59784 15278 ft 363 kts 235°
2026-05-01 07:50 43.93081 7.56929 14888 ft 361 kts 235°
2026-05-01 07:50 43.90225 7.51285 14191 ft 353 kts 235°
2026-05-01 07:50 43.88814 7.48505 13762 ft 351 kts 235°
2026-05-01 07:51 43.87415 7.45750 13334 ft 349 kts 235°
2026-05-01 07:51 43.85817 7.43254 12890 ft 347 kts 217°
2026-05-01 07:51 43.83685 7.41770 12484 ft 344 kts 194°
2026-05-01 07:52 43.79067 7.42350 11643 ft 337 kts 153°
2026-05-01 07:52 43.77130 7.44123 11235 ft 333 kts 140°
2026-05-01 07:52 43.75352 7.46146 11011 ft 325 kts 138°
2026-05-01 07:53 43.71987 7.49997 10845 ft 303 kts 139°
2026-05-01 07:53 43.70368 7.51811 10621 ft 298 kts 139°
2026-05-01 07:53 43.68757 7.53607 10341 ft 296 kts 140°
2026-05-01 07:53 43.66901 7.54821 9932 ft 300 kts 171°
2026-05-01 07:54 43.63137 7.53003 9282 ft 297 kts 221°
2026-05-01 07:55 43.58685 7.47111 8249 ft 296 kts 225°
2026-05-01 07:55 43.55780 7.43119 7659 ft 294 kts 225°
2026-05-01 07:56 43.51512 7.37153 6688 ft 293 kts 225°
2026-05-01 07:56 43.48699 7.33151 6012 ft 293 kts 225°
2026-05-01 07:57 43.47298 7.31142 5754 ft 289 kts 225°
2026-05-01 07:57 43.44532 7.27149 5136 ft 287 kts 225°
2026-05-01 07:58 43.42074 7.22850 4473 ft 290 kts 244°
2026-05-01 07:58 43.40872 7.17702 4191 ft 275 kts 258°
2026-05-01 07:59 43.40230 7.12646 3994 ft 259 kts 262°
2026-05-01 07:59 43.39777 7.07934 3994 ft 243 kts 263°
2026-05-01 08:00 43.41294 7.00282 4016 ft 208 kts 346°
2026-05-01 08:01 43.45534 7.00078 4018 ft 198 kts
2026-05-01 08:01 43.46876 7.00179 3999 ft 187 kts
2026-05-01 08:01 43.48154 7.00271 3998 ft 183 kts
2026-05-01 08:02 43.50617 7.00914 3784 ft 183 kts 28°
2026-05-01 08:02 43.51736 7.01782 3445 ft 184 kts 43°
2026-05-01 08:03 43.53524 7.04271 2713 ft 184 kts 50°
2026-05-01 08:03 43.54374 7.05562 2470 ft 179 kts 50°
2026-05-01 08:03 43.56018 7.07982 2049 ft 165 kts 48°
2026-05-01 08:04 43.57595 7.10073 1724 ft 146 kts 45°
2026-05-01 08:04 43.59056 7.12007 1359 ft 139 kts 48°
2026-05-01 08:05 43.60358 7.13784 984 ft 133 kts 49°
2026-05-01 08:05 43.61022 7.14689 899 ft 137 kts 48°
2026-05-01 08:05 43.61708 7.15631 787 ft 141 kts 48°
2026-05-01 08:06 43.63163 7.17626 563 ft 153 kts 47°
2026-05-01 08:06 43.64614 7.19617 234 ft 137 kts 50°
2026-05-01 08:07 43.65869 7.21348 20 ft 93 kts 46°
2026-05-01 08:07 43.66182 7.21756 20 ft 13 kts
2026-05-01 08:08 43.66258 7.21692 20 ft 12 kts 315°
2026-05-01 08:08 43.66364 7.21542 20 ft 7 kts 305°
2026-05-01 08:09 43.66351 7.21414 20 ft 7 kts 258°
2026-05-01 08:09 43.66342 7.21350 22 ft 7 kts 259°
2026-05-01 08:09 43.66368 7.21303 20 ft 6 kts 336°
2026-05-01 08:10 43.66424 7.21318 20 ft 0 kts 19°